N3HBJ Weather Reports


time (UTC)temp
C
wind
direction
speed
KPH
gust
KPH
rain 1hr
cm
rain 24hr
cm
rain mn
cm
humidity
%
barometer
mb
20260507145411 12 227 4.8 16.1 0.00 0.00 0.00 45 1012.2
20260507144910 12 207 3.2 16.1 0.00 0.00 0.00 44 1012.2
20260507144410 12 178 1.6 9.7 0.00 0.00 0.00 45 1012.3
20260507143910 12 208 1.6 11.3 0.00 0.00 0.00 46 1012.4
20260507143410 11 138 1.6 11.3 0.00 0.00 0.00 50 1012.3
20260507142910 11 192 3.2 19.3 0.00 0.00 0.00 46 1012.3
20260507142410 11 262 3.2 19.3 0.00 0.00 0.00 49 1012.5
20260507142134 11 264 3.2 12.9 0.00 0.00 0.00 45 1012.6
20260507141410 11 187 3.2 12.9 0.00 0.00 0.00 46 1012.6
20260507140911 11 252 3.2 12.9 0.00 0.00 0.00 48 1012.7
20260507140633 11 146 3.2 12.9 0.00 0.00 0.00 52 1012.7
20260507135910 10 194 1.6 11.3 0.00 0.00 0.00 50 1012.8
20260507135410 10 222 1.6 12.9 0.00 0.00 0.00 52 1012.9
20260507134910 10 262 3.2 12.9 0.00 0.00 0.00 49 1012.9
20260507134410 10 96 1.6 12.9 0.00 0.00 0.00 49 1012.9
20260507133907 10 167 0.0 9.7 0.00 0.00 0.00 53 1012.9
20260507133629 9 29 1.6 9.7 0.00 0.00 0.00 55 1012.9
20260507132904 9 84 3.2 12.9 0.00 0.03 0.00 57 1012.9
20260507132358 9 74 3.2 14.5 0.00 0.03 0.00 59 1012.9
20260507131852 9 133 1.6 14.5 0.00 0.03 0.00 59 1013.0
20260507131346 8 82 3.2 8.0 0.00 0.03 0.00 61 1013.1
20260507130839 8 53 3.2 8.0 0.00 0.03 0.00 61 1013.1
20260507130340 8 53 1.6 8.0 0.00 0.03 0.00 64 1013.3
20260507125838 8 76 1.6 6.4 0.00 0.03 0.00 65 1013.3
20260507125338 7 84 1.6 11.3 0.00 0.03 0.00 68 1013.3
20260507124837 7 90 1.6 11.3 0.00 0.03 0.00 67 1013.4
20260507124335 7 65 1.6 9.7 0.00 0.03 0.00 68 1013.4
20260507123834 7 70 1.6 8.0 0.00 0.03 0.00 69 1013.4
20260507123331 6 85 1.6 6.4 0.00 0.03 0.00 70 1013.4
20260507122834 6 52 1.6 6.4 0.00 0.03 0.00 72 1013.3
20260507122332 6 69 1.6 6.4 0.00 0.03 0.00 73 1013.4
20260507121831 6 109 0.0 4.8 0.00 0.03 0.00 74 1013.5
20260507121332 5 348 0.0 3.2 0.00 0.05 0.00 77 1013.4
20260507120832 5 203 0.0 0.0 0.00 0.05 0.00 80 1013.4
20260507120606 4 203 0.0 0.0 0.00 0.05 0.00 83 1013.3
20260507115831 3 203 0.0 0.0 0.00 0.05 0.00 87 1013.3
20260507115331 3 203 0.0 0.0 0.00 0.08 0.00 88 1013.1
20260507115107 2 203 0.0 0.0 0.00 0.10 0.00 90 1013.1
20260507114332 2 203 0.0 0.0 0.00 0.15 0.00 90 1013.0
20260507114058 2 203 0.0 0.0 0.00 0.25 0.00 90 1013.0
20260507113328 1 203 0.0 0.0 0.00 0.30 0.00 90 1013.0
20260507113043 1 203 0.0 0.0 0.00 0.36 0.00 91 1013.0
20260507112321 1 203 0.0 0.0 0.00 0.38 0.00 92 1013.0
20260507111819 1 203 0.0 0.0 0.00 0.38 0.00 92 1013.0
20260507111558 0 203 0.0 0.0 0.00 0.41 0.00 92 1013.0
20260507111041 0 203 0.0 0.0 0.00 0.43 0.00 91 1012.9
20260507110320 0 203 0.0 0.0 0.00 0.43 0.00 91 1012.9
20260507110045 0 203 0.0 0.0 0.00 0.46 0.00 90 1012.8
20260507105319 0 203 0.0 0.0 0.00 0.48 0.00 90 1012.8
20260507104820 0 203 0.0 0.0 0.00 0.48 0.00 90 1012.7
20260507104320 0 203 0.0 0.0 0.00 0.51 0.00 90 1012.7
20260507103820 0 203 0.0 0.0 0.00 0.51 0.00 90 1012.7
20260507103319 0 203 0.0 0.0 0.00 0.51 0.00 90 1012.7
20260507103041 0 203 0.0 0.0 0.00 0.53 0.00 90 1012.5
20260507102319 0 203 0.0 0.0 0.00 0.56 0.00 89 1012.5
20260507101819 0 203 0.0 0.0 0.00 0.58 0.00 89 1012.7
20260507101547 0 203 0.0 0.0 0.00 0.58 0.00 89 1012.6
20260507100821 0 203 0.0 0.0 0.00 0.61 0.00 89 1012.6
20260507100318 0 203 0.0 0.0 0.00 0.64 0.00 88 1012.5
20260507095823 0 203 0.0 0.0 0.00 0.66 0.00 88 1012.5
20260507095320 0 203 0.0 0.0 0.00 0.69 0.00 88 1012.5
20260507094821 1 203 0.0 0.0 0.00 0.69 0.00 88 1012.5
20260507094319 1 203 0.0 0.0 0.00 0.71 0.00 88 1012.5
20260507093821 1 203 0.0 0.0 0.00 0.71 0.00 88 1012.6
20260507093320 1 203 0.0 0.0 0.00 0.71 0.00 88 1012.5
20260507093040 1 203 0.0 0.0 0.00 0.71 0.00 87 1012.6
20260507092320 1 203 0.0 0.0 0.00 0.71 0.00 87 1012.5
20260507091822 1 203 0.0 0.0 0.00 0.71 0.00 87 1012.5
20260507091549 1 203 0.0 0.0 0.00 0.71 0.00 87 1012.6
20260507090821 1 203 0.0 0.0 0.00 0.71 0.00 87 1012.5
20260507090319 1 203 0.0 0.0 0.00 0.71 0.00 86 1012.4
20260507085821 2 203 0.0 0.0 0.00 0.71 0.00 86 1012.4
20260507085319 2 203 0.0 0.0 0.00 0.74 0.00 85 1012.3
20260507084821 2 203 0.0 0.0 0.00 0.74 0.00 85 1012.3
20260507084320 2 203 0.0 0.0 0.00 0.74 0.00 85 1012.3
20260507083821 2 203 0.0 0.0 0.00 0.74 0.00 84 1012.3
20260507083319 2 203 0.0 0.0 0.00 0.74 0.00 84 1012.3
20260507082820 3 203 0.0 0.0 0.00 0.74 0.00 83 1012.3
20260507082318 3 203 0.0 0.0 0.00 0.74 0.00 83 1012.4
20260507081816 3 203 0.0 0.0 0.00 0.74 0.00 83 1012.4
20260507081315 3 203 0.0 0.0 0.00 0.74 0.00 82 1012.4
20260507080812 3 203 0.0 0.0 0.00 0.74 0.00 81 1012.5
20260507080540 3 203 0.0 0.0 0.00 0.74 0.00 81 1012.4
20260507075813 4 203 0.0 0.0 0.00 0.76 0.00 80 1012.4
20260507075535 4 203 0.0 0.0 0.00 0.76 0.00 79 1012.5
20260507074813 4 203 0.0 0.0 0.00 0.76 0.00 79 1012.5
20260507074759 5 203 0.0 0.0 0.00 0.76 0.00 80 1012.5
20260507073811 5 203 0.0 0.0 0.00 0.76 0.00 79 1012.5
20260507073312 5 203 0.0 0.0 0.00 0.76 0.00 79 1012.5
20260507072811 5 203 0.0 0.0 0.00 0.76 0.00 78 1012.5
20260507072311 5 203 0.0 0.0 0.00 0.76 0.00 77 1012.5
20260507072027 5 203 0.0 0.0 0.00 0.76 0.00 77 1012.5
20260507071308 6 203 0.0 0.0 0.00 0.76 0.00 77 1012.4
20260507070801 6 203 0.0 0.0 0.00 0.76 0.00 76 1012.4
20260507070254 6 203 0.0 0.0 0.00 0.76 0.00 76 1012.4
20260507065748 6 203 0.0 0.0 0.00 0.76 0.00 74 1012.4
20260507065249 6 203 0.0 0.0 0.00 0.76 0.00 77 1012.4
20260507064750 6 203 0.0 0.0 0.00 0.76 0.00 78 1012.3
20260507064451 6 203 0.0 0.0 0.00 0.79 0.00 78 1012.4
20260507064442 6 203 0.0 0.0 0.00 0.76 0.00 78 1012.4
20260507063241 6 203 0.0 0.0 0.00 0.79 0.00 76 1012.4
20260507062741 6 203 0.0 0.0 0.00 0.79 0.00 76 1012.5
20260507062240 6 203 0.0 0.0 0.00 0.79 0.00 79 1012.5
20260507061739 6 203 0.0 0.0 0.00 0.79 0.00 78 1012.7
20260507061237 6 203 0.0 0.0 0.00 0.79 0.00 80 1012.8
20260507060737 6 203 0.0 0.0 0.00 0.79 0.00 80 1012.8
20260507060500 6 203 0.0 0.0 0.00 0.79 0.00 77 1012.9
20260507055734 6 203 0.0 0.0 0.00 0.79 0.00 79 1012.8
20260507055232 6 203 0.0 0.0 0.00 0.79 0.00 78 1012.9
20260507054733 6 203 0.0 0.0 0.00 0.79 0.00 80 1012.9
20260507054232 6 203 0.0 0.0 0.00 0.79 0.00 79 1012.9
20260507053732 6 203 0.0 0.0 0.00 0.79 0.00 78 1012.9
20260507053231 6 203 0.0 0.0 0.00 0.79 0.00 78 1012.8
20260507052731 6 203 0.0 0.0 0.00 0.79 0.00 77 1013.0
20260507052231 6 203 0.0 0.0 0.00 0.79 0.00 75 1013.0
20260507051731 6 203 0.0 0.0 0.00 0.79 0.00 75 1013.0
20260507051230 6 203 0.0 0.0 0.00 0.79 0.00 75 1012.9
20260507050729 6 203 0.0 0.0 0.00 0.79 0.00 76 1012.9
20260507050228 6 203 0.0 0.0 0.00 0.79 0.00 75 1012.9
20260507045952 6 203 0.0 0.0 0.00 0.79 0.00 74 1013.0
20260507045443 7 203 0.0 0.0 0.00 0.79 0.00 72 1013.0
20260507044948 7 203 0.0 0.0 0.00 0.79 0.00 72 1013.0
20260507044225 7 203 0.0 0.0 0.00 0.79 0.00 71 1013.0
20260507043725 7 203 0.0 0.0 0.00 0.79 0.00 70 1013.0
20260507043439 7 203 0.0 0.0 0.00 0.79 0.00 72 1012.9
20260507042722 7 203 0.0 0.0 0.00 0.79 0.00 70 1012.8
20260507042439 7 203 0.0 0.0 0.00 0.79 0.00 68 1012.9
20260507041720 7 203 0.0 0.0 0.00 0.79 0.00 70 1012.8
20260507041219 7 203 0.0 0.0 0.00 0.79 0.00 70 1012.7
20260507040719 7 203 0.0 0.0 0.00 0.79 0.00 71 1012.7
20260507040219 7 203 0.0 0.0 0.00 0.79 0.00 70 1012.7
20260507035719 7 203 0.0 0.0 0.00 0.79 0.79 66 1012.6
20260507035216 8 203 0.0 0.0 0.00 0.79 0.79 67 1012.7
20260507034717 8 203 0.0 0.0 0.00 0.79 0.79 66 1012.7
20260507034217 8 203 0.0 0.0 0.00 0.79 0.79 64 1012.6
20260507033717 8 203 0.0 0.0 0.00 0.79 0.79 65 1012.7
20260507033215 8 203 0.0 4.8 0.00 0.79 0.79 65 1012.7
20260507032934 8 203 0.0 4.8 0.00 0.79 0.79 65 1012.7
20260507032214 8 203 0.0 4.8 0.00 0.79 0.79 65 1012.5
20260507031715 8 203 0.0 4.8 0.00 0.79 0.79 67 1012.6
20260507031214 8 242 0.0 3.2 0.00 0.79 0.79 67 1012.5
20260507030714 8 242 0.0 3.2 0.00 0.79 0.79 66 1012.5
20260507030215 8 253 0.0 0.0 0.00 0.79 0.79 65 1012.3
20260507025940 8 253 0.0 0.0 0.00 0.79 0.79 67 1012.2
20260507025210 8 253 0.0 0.0 0.00 0.79 0.79 65 1012.4
20260507024710 8 253 0.0 3.2 0.00 0.79 0.79 64 1012.3
20260507024210 8 253 0.0 3.2 0.00 0.79 0.79 62 1012.3
20260507023711 8 278 0.0 0.0 0.00 0.79 0.79 63 1012.2
20260507023208 8 278 0.0 0.0 0.00 0.79 0.79 62 1012.3
20260507022721 8 278 0.0 0.0 0.00 0.79 0.79 62 1012.3
20260507022206 8 278 0.0 4.8 0.00 0.79 0.79 61 1012.3
20260507021706 8 279 0.0 4.8 0.00 0.79 0.79 61 1012.2
20260507021425 8 279 0.0 8.0 0.00 0.79 0.79 61 1012.3
20260507020704 8 189 0.0 9.7 0.00 0.79 0.79 61 1012.2
20260507020653 8 230 0.0 9.7 0.00 0.79 0.79 61 1012.3
20260507015700 9 201 1.6 8.0 0.00 0.79 0.79 62 1012.2
20260507015200 9 226 1.6 12.9 0.00 0.79 0.79 62 1012.0
20260507014700 9 217 1.6 12.9 0.00 0.79 0.79 65 1012.1
20260507014431 9 312 1.6 9.7 0.00 0.79 0.79 73 1012.3
20260507014146 9 272 0.0 9.7 0.00 0.79 0.79 74 1012.4
20260507013426 10 180 0.0 9.7 0.00 0.79 0.79 76 1012.3
20260507012700 10 223 0.0 3.2 0.00 0.79 0.79 76 1012.2
20260507012200 10 196 0.0 3.2 0.00 0.79 0.79 76 1012.4
20260507011702 10 146 0.0 0.0 0.00 0.79 0.79 77 1012.3
20260507011424 10 146 0.0 0.0 0.00 0.79 0.79 77 1012.3
20260507010700 10 146 0.0 3.2 0.00 0.79 0.79 77 1012.4
20260507010159 10 146 0.0 3.2 0.00 0.79 0.79 76 1012.2
20260507005656 10 146 0.0 4.8 0.00 0.79 0.79 76 1012.1
20260507005155 10 143 0.0 4.8 0.00 0.79 0.79 76 1012.1
20260507004656 10 211 0.0 3.2 0.00 0.79 0.79 76 1012.3
20260507004153 10 223 0.0 8.0 0.00 0.79 0.79 75 1012.3
20260507003647 10 224 0.0 8.0 0.00 0.79 0.79 75 1012.1
20260507003141 10 178 0.0 4.8 0.00 0.79 0.79 75 1012.1
20260507002635 10 147 0.0 9.7 0.00 0.79 0.79 75 1012.0
20260507002129 10 146 0.0 9.7 0.00 0.79 0.79 75 1011.8
20260507001849 10 292 0.0 4.8 0.00 0.79 0.79 75 1011.8
20260507001124 10 292 0.0 4.8 0.00 0.79 0.79 75 1011.7
20260507000624 10 150 0.0 3.2 0.00 0.79 0.79 76 1011.5
20260507000125 10 194 0.0 4.8 0.00 0.79 0.79 76 1011.5
20260507000109 10 197 0.0 4.8 0.00 0.79 0.79 76 1011.5
20260506235118 10 176 1.6 11.3 0.00 0.79 0.79 76 1011.5
20260506234619 10 177 1.6 11.3 0.00 0.79 0.79 76 1011.3
20260506234119 10 133 0.0 6.4 0.00 0.79 0.79 78 1011.3
20260506233619 10 104 0.0 3.2 0.00 0.79 0.79 79 1011.1
20260506233118 10 103 0.0 3.2 0.00 0.79 0.79 80 1011.0
20260506232621 10 197 0.0 0.0 0.00 0.79 0.79 80 1011.0
20260506232118 10 197 0.0 0.0 0.00 0.79 0.79 80 1010.8
20260506231618 10 197 0.0 3.2 0.00 0.79 0.79 80 1010.7
20260506231118 10 197 0.0 3.2 0.00 0.79 0.79 80 1010.7
20260506230619 10 198 0.0 0.0 0.00 0.79 0.79 81 1010.7
20260506230119 10 198 0.0 1.6 0.00 0.79 0.79 81 1010.7
20260506225618 10 198 0.0 3.2 0.00 0.79 0.79 80 1010.7
20260506225118 10 198 0.0 3.2 0.00 0.79 0.79 80 1010.6
20260506224618 10 198 0.0 3.2 0.00 0.79 0.79 81 1010.7
20260506224111 10 199 0.0 0.0 0.00 0.79 0.79 81 1011.0
20260506223605 10 199 0.0 0.0 0.00 0.79 0.79 81 1011.0
20260506223105 10 199 0.0 0.0 0.00 0.79 0.79 82 1011.0
20260506222824 10 199 0.0 3.2 0.00 0.79 0.79 81 1011.0
20260506222120 10 199 0.0 4.8 0.00 0.79 0.79 82 1010.8
20260506221828 10 216 0.0 4.8 0.00 0.79 0.79 81 1010.6
20260506221106 10 180 1.6 6.4 0.00 0.79 0.79 81 1010.5
20260506220603 10 193 1.6 9.7 0.00 0.79 0.79 81 1010.3
20260506220104 10 241 1.6 9.7 0.00 0.79 0.79 81 1010.2
20260506215604 10 217 1.6 11.3 0.00 0.79 0.79 81 1010.2
20260506215321 10 223 1.6 11.3 0.00 0.79 0.79 80 1010.2
20260506214559 11 213 1.6 12.9 0.00 0.79 0.79 80 1010.3
20260506214314 11 228 1.6 12.9 0.00 0.79 0.79 79 1010.3
20260506213556 11 288 3.2 12.9 0.00 0.79 0.79 78 1010.1
20260506213056 11 257 1.6 12.9 0.00 0.79 0.79 78 1010.1
20260506212823 11 250 1.6 11.3 0.00 0.79 0.79 78 1010.0
20260506212056 11 180 1.6 11.3 0.00 0.79 0.79 78 1009.8
20260506211556 11 182 1.6 11.3 0.00 0.79 0.79 78 1009.7
20260506211055 11 219 1.6 11.3 0.00 0.79 0.79 79 1009.6
20260506210553 11 182 1.6 9.7 0.00 0.79 0.79 78 1009.5
20260506210101 11 223 3.2 11.3 0.00 0.79 0.79 78 1009.4
20260506205549 11 311 1.6 16.1 0.00 0.79 0.79 78 1009.4
20260506205047 12 202 1.6 16.1 0.00 0.79 0.79 77 1009.4
20260506204548 12 130 1.6 16.1 0.00 0.79 0.79 78 1009.3
20260506204050 12 163 1.6 16.1 0.00 0.79 0.79 78 1009.3
20260506203548 12 222 1.6 9.7 0.00 0.79 0.79 79 1009.3
20260506203047 12 236 0.0 9.7 0.00 0.79 0.79 79 1009.2
20260506202545 12 210 1.6 9.7 0.00 0.79 0.79 79 1009.2
20260506202045 12 175 0.0 4.8 0.00 0.79 0.79 79 1009.2
20260506201558 12 72 1.6 11.3 0.00 0.79 0.79 80 1009.2
20260506201044 12 63 1.6 11.3 0.00 0.79 0.79 80 1009.2
20260506200543 12 195 0.0 4.8 0.00 0.79 0.79 81 1009.2
20260506200042 12 155 0.0 4.8 0.00 0.79 0.79 80 1009.1
20260506195539 12 163 1.6 16.1 0.00 0.79 0.79 80 1008.9
20260506195300 12 191 1.6 16.1 0.00 0.79 0.79 80 1008.9
20260506194539 12 128 1.6 11.3 0.00 0.79 0.79 79 1008.8
20260506194301 12 198 3.2 11.3 0.00 0.79 0.79 80 1008.8
20260506193806 13 176 1.6 11.3 0.00 0.79 0.79 80 1008.7
20260506193255 13 134 1.6 8.0 0.00 0.79 0.79 80 1008.6
20260506193020 13 215 1.6 8.0 0.00 0.79 0.79 80 1008.6
20260506192037 13 158 1.6 14.5 0.00 0.79 0.79 80 1008.4
20260506191538 13 197 1.6 14.5 0.00 0.79 0.79 81 1008.6
20260506191030 13 178 3.2 11.3 0.00 0.79 0.79 80 1008.4
20260506190537 13 204 3.2 14.5 0.00 0.79 0.79 80 1008.4
20260506190031 13 140 1.6 14.5 0.00 0.79 0.79 81 1008.6
20260506185532 13 144 1.6 8.0 0.00 0.79 0.79 81 1008.6
20260506185030 13 251 1.6 9.7 0.00 0.79 0.79 81 1008.6
20260506184531 13 192 3.2 16.1 0.00 0.79 0.79 81 1008.4
20260506184032 13 86 3.2 16.1 0.00 0.79 0.79 81 1008.2
20260506183533 13 176 3.2 14.5 0.00 0.79 0.79 82 1008.2
20260506183030 13 203 3.2 14.5 0.00 0.79 0.79 82 1008.2
20260506182536 13 128 1.6 12.9 0.00 0.79 0.79 83 1008.2
20260506182031 13 180 3.2 12.9 0.00 0.79 0.79 82 1008.2
20260506181534 13 182 4.8 20.9 0.00 0.79 0.79 82 1008.0
20260506181248 13 205 3.2 20.9 0.00 0.79 0.79 83 1007.9
20260506180524 13 142 1.6 11.3 0.00 0.79 0.79 84 1008.0
20260506180023 14 89 1.6 11.3 0.00 0.79 0.79 84 1007.8
20260506175522 14 113 1.6 12.9 0.00 0.79 0.79 84 1007.8
20260506175251 14 169 3.2 12.9 0.00 0.79 0.79 83 1007.8
20260506174524 14 155 3.2 12.9 0.00 0.79 0.79 83 1007.7
20260506174244 14 142 3.2 9.7 0.00 0.79 0.79 84 1007.6
20260506173741 14 147 3.2 12.9 0.00 0.79 0.79 84 1007.6
20260506173238 14 88 3.2 17.7 0.00 0.79 0.79 84 1007.5
20260506172519 14 124 3.2 17.7 0.00 0.79 0.79 84 1007.7
20260506172019 14 134 3.2 14.5 0.00 0.79 0.79 85 1007.7
20260506171738 14 98 3.2 14.5 0.00 0.79 0.79 85 1007.7
20260506171018 14 137 1.6 11.3 0.00 0.79 0.79 86 1007.7
20260506170736 14 156 1.6 11.3 0.00 0.79 0.79 85 1007.6
20260506170018 14 143 0.0 11.3 0.00 0.79 0.79 87 1007.5
20260506165521 13 143 0.0 11.3 0.00 0.79 0.79 88 1007.6
20260506165019 13 143 1.6 16.1 0.00 0.79 0.79 87 1007.5
20260506164736 13 191 3.2 16.1 0.00 0.79 0.79 87 1007.6
20260506164017 13 190 3.2 19.3 0.00 0.79 0.79 86 1007.5
20260506163519 14 146 3.2 19.3 0.00 0.79 0.79 85 1007.5
20260506163018 14 174 3.2 12.9 0.00 0.79 0.79 87 1007.5
20260506162519 14 81 3.2 14.5 0.00 0.79 0.79 87 1007.2
20260506162019 14 126 3.2 14.5 0.00 0.79 0.79 87 1007.2
20260506161518 14 140 1.6 11.3 0.00 0.79 0.79 88 1007.3
20260506161031 14 81 0.0 4.8 0.00 0.79 0.79 88 1007.2
20260506160518 14 74 0.0 4.8 0.00 0.79 0.79 88 1007.2
20260506160031 14 105 0.0 4.8 0.00 0.79 0.79 88 1007.1
20260506155519 14 105 0.0 6.4 0.00 0.79 0.79 88 1007.1
20260506155019 14 61 1.6 6.4 0.00 0.79 0.79 88 1007.1
20260506154518 14 78 1.6 19.3 0.00 0.79 0.79 88 1007.0
20260506154018 14 92 3.2 19.3 0.00 0.79 0.79 88 1006.9
20260506153518 14 59 1.6 9.7 0.00 0.79 0.79 88 1006.9
20260506153019 14 132 1.6 11.3 0.00 0.79 0.79 88 1006.8
20260506152743 14 67 1.6 11.3 0.00 0.79 0.79 88 1006.7
20260506152018 14 57 1.6 9.7 0.00 0.79 0.79 88 1006.6
20260506152005 14 63 3.2 16.1 0.00 0.79 0.79 88 1006.6
20260506151018 14 85 1.6 16.1 0.00 0.79 0.79 88 1006.6
20260506150518 14 130 1.6 8.0 0.00 0.79 0.79 89 1006.6
20260506150239 14 131 1.6 9.7 0.00 0.79 0.79 89 1006.7
20260506145748 13 54 0.0 9.7 0.00 0.79 0.79 89 1006.7